Other Public Products
Issued by NWS Grand Forks, ND

Home | Current Version | Previous Version | Graphics & Text | Print | Product List | Glossary On
Versions: 1 2 3 4 5 6 7 8 9 10 11 12 13 14 15 16 17 18 19 20 21 22 23 24 25 26 27 28 29 30 31 32 33 34 35 36 37 38 39 40 41 42 43 44 45 46 47 48 49 50
000
FPUS83 KFGF 200410
OPUFGF
PRAIRIE TO PINES WEATHER ROUNDUP
NATIONAL WEATHER SERVICE EASTERN NORTH DAKOTA/GRAND FORKS ND
1000 PM CST SUN NOV 19 2017

 **SATELLITE DATA USED TO AUGMENT SKY COVER AT AUTOMATED STATIONS**
 *****  WEATHER ACROSS EASTERN NORTH DAKOTA  *****

CITY           SKY/WX    TMP DP  RH WIND       PRES   REMARKS
GRAND FORKS    FAIR      17  15  92 CALM      29.70F
GRND FORKS AFB FAIR      15  13  92 CALM      29.70S
GRND FORKS NWS   N/A     21 N/A N/A MISG        N/A
BUXTON         NOT AVBL
DEVILS LAKE    FAIR      21  20  96 SE5       29.65F WCI  15
FARGO          FAIR      22  18  85 CALM      29.72F
WAHPETON ARPT  NOT AVBL
$$

 *****  WEATHER ACROSS CENTRAL AND WESTERN NORTH DAKOTA  *****

CITY           SKY/WX    TMP DP  RH WIND       PRES   REMARKS
JAMESTOWN      FAIR      23  19  85 SW7       29.67F WCI  15
BISMARCK       FAIR      30  23  75 CALM      29.67F
MINOT          FAIR      39  23  52 S15       29.56F
MINOT AFB      FAIR      34  23  64 S12       29.53F
GARRISON         N/A     29  22  75 S5        29.61F WCI  24
WILLISTON      FAIR      30  21  69 S6        29.56F WCI  24
DICKINSON      FAIR      32  20  61 S12       29.60F WCI  23
HETTINGER      FAIR      27  17  66 W5        29.67F WCI  22
$$

 *****  OTHER OBSERVATIONS NORTHEAST NORTH DAKOTA  *****

CITY           SKY/WX    TMP DP  RH WIND       PRES   REMARKS
WALHALLA       FAIR      16  16 100 SE3       29.68F
LANGDON        NOT AVBL
CAVALIER       FAIR      12  12 100 SW5       29.69F FOG     WCI   4
GRAFTON        NOT AVBL
CANDO          FAIR      21  21 100 S8        29.65F WCI  12
FORT TOTTEN      N/A     26  23  89 SE6       29.95S WCI  19
ROLLA          FAIR      23  23 100 S12       29.60F WCI  12
RUGBY          NOT AVBL
 ***** THE ABOVE OBSERVATIONS ARE NON NWS ARE NOT QUALITY
        CONTROLLED AND MAY MIS-REPORT RAIN FOR SNOW...
$$

 *****  OTHER OBSERVATIONS SOUTHEAST NORTH DAKOTA *****

CITY           SKY/WX    TMP DP  RH WIND       PRES   REMARKS
COOPERSTOWN    FAIR      23  23 100 S8        29.68F WCI  14
VALLEY CITY    NOT AVBL
OAKES            N/A     21  18  86 CALM      29.71F
GWINNER          N/A     23  18  80 SW7       29.72S WCI  15
SHEYENNE NWR     N/A     21  18  88 S2        29.95S
BUFFALO        NOT AVBL
WYNDMERE       NOT AVBL
 ***** THE ABOVE OBSERVATIONS ARE NON NWS ARE NOT QUALITY
       CONTROLLED AND MAY MIS-REPORT RAIN FOR SNOW...
$$

  *****  WEATHER ACROSS NORTHERN MINNESOTA  *****

CITY           SKY/WX    TMP DP  RH WIND       PRES   REMARKS
FLAG ISLAND    FAIR      18  16  93 CALM      29.70F
WARROAD        FAIR      18  12  79 CALM      29.71F
ROSEAU         FAIR      18  12  79 SE3       29.70F
HALLOCK        FAIR      12  10  92 E3        29.69F
THF RVR FALLS  FAIR      20  18  92 SE3       29.71F
HALSTAD        NOT AVBL
FOSSTON        FAIR      19  16  86 S3        29.71F
BAUDETTE       FAIR      15  10  80 SE6       29.71F WCI   6
WASKISH        FAIR      14  12  92 SE3       29.72S
CROOKSTON      FAIR      21  19  93 SE7       29.71F WCI  13
$$
  *****  WEATHER ACROSS CENTRAL AND WEST MINNESOTA  *****

CITY           SKY/WX    TMP DP  RH WIND       PRES   REMARKS
BEMIDJI        FAIR      16  13  90 CALM      29.70F
PARK RAPIDS    FAIR      24  20  84 CALM      29.70F
WADENA         FAIR      21  19  93 CALM      29.72F
DETROIT LAKES  FAIR      28  27  93 SW5       29.73S WCI  23
MOORHEAD       FAIR      25  19  80 CALM      29.73F
FERGUS FALLS   FAIR      28  21  74 S5        29.76S WCI  23
ELBOW LAKE     FAIR      29  24  82 S6        29.74F WCI  23
MORRIS MN      FAIR      34  25  69 CALM      29.74F
STAPLES        FAIR      21  21 100 S3        29.73F
WHEATON        FAIR      25  19  80 S3        29.76F
$$
  *****  WEATHER ELSEWHERE ACROSS MINNESOTA  *****

CITY           SKY/WX    TMP DP  RH WIND       PRES   REMARKS
DULUTH         FAIR      19  15  84 SE6       29.75F WCI  11
INTRNTL FALLS  FAIR      13   9  84 SE3       29.74F
ELY            FAIR      10  10 100 CALM      29.76F
CLOQUET        FAIR      18  14  86 CALM      29.75F
BRAINERD       FAIR      26  21  81 SW3       29.73F
HIBBING        FAIR       9   8  96 CALM      29.75F
ALEXANDRIA     FAIR      31  24  75 SW8       29.75F WCI  23
SAINT CLOUD    FAIR      23  21  92 CALM      29.77F
MINNEAPOLIS    MOCLDY    38  26  62 SW6       29.81F
$$

  *****  WEATHER ACROSS SOUTH DAKOTA  *****

CITY           SKY/WX    TMP DP  RH WIND       PRES   REMARKS
SIOUX FALLS    MOCLDY    40  26  57 SW6       29.80F
BROOKINGS      FAIR      35  24  64 S12       29.77F
WATERTOWN      FAIR      35  25  66 SW12      29.73F
HURON          FAIR      33  24  69 SE6       29.75F
SISSETON         N/A     34  24  67 SW8       29.72F
ABERDEEN       FAIR      22  18  85 SW7       29.73F WCI  13
MITCHELL       FAIR      36  25  64 S10       29.77F
PIERRE         FAIR      32  24  72 CALM      29.71F
MOBRIDGE       FAIR      32  25  75 SE6       29.67F
RAPID CITY     FAIR      34  17  50 W5        29.71F
$$

  *****  SOME WEATHER IN NEARBY STATES *****

CITY           SKY/WX    TMP DP  RH WIND       PRES   REMARKS
GLASGOW MT     FAIR      37  20  50 S6        29.50F
GREAT FALLS MT FAIR      45   9  23 SW20      29.59F
CHEYENNE WY    FAIR      42   2  18 W23G30    29.95R
SCOTTSBLUFF NE FAIR      44   8  23 W13       29.87F
OMAHA NE       FAIR      39  26  59 SE12      29.93F
DES MOINES IA  FAIR      39  27  62 S12       29.97F
DAVENPORT IA   FAIR      34  23  64 SW10      30.06F
CHICAGO IL     FAIR      31  19  61 SW13      30.06S WCI  21
EAU CLAIRE WI  FAIR      26  20  77 S5        29.84F WCI  20
LA CROSSE WI   FAIR      35  25  66 SE10      29.91F
$$

  *****  SOME NATIONAL WEATHER *****

CITY           SKY/WX    TMP DP  RH WIND       PRES   REMARKS
LA GUARDIA NY  LGT RAIN  40  33  76 W13       29.78R
RALEIGH NC     FAIR      38  25  59 CALM      30.07R
ATLANTA GA     FAIR      41  30  65 NW9       30.15R
NEW ORLEANS LA FAIR      56  31  38 N10G17    30.22R
OKLAHOMA CITY  FAIR      39  26  59 S8        30.16S
ALBUQUERQUE NM FAIR      38   1  21 E3        30.18S
SALT LAKE CITY MOCLDY    36  31  82 N7        30.10R
LOS ANGELES CA FAIR      62  55  77 W6        30.00S
BOISE ID       FAIR      42  25  50 E6        29.97S
SEATTLE WA     LGT RAIN  42  40  92 S10       29.63F
$$

*** WEATHER ACROSS MANITOBA...SASKATCHEWAN AND ONTARIO ***
                ***ONTARIO***

CITY           SKY/WX    TMP DP  RH WIND       PRES   REMARKS
GERALDTON      FLURRIES  12   9  85 W7        29.72F WCI   2
THUNDER BAY    CLEAR      9   7  92 W3        29.83F
SIOUX LOOKOUT  PTCLDY    -4  -8  84 VRB2      29.73F
TORONTO        MOCLDY    28  23  80 W7        29.83S WCI  21
BIG TROUT LK   CLOUDY     9   3  78 W13       29.64S WCI  -7
PICKLE LAKE    NOT AVBL
DRYDEN         CLOUDY    10   7  85 S7        29.72F WCI   0
KENORA         NOT AVBL
$$
                *** MANITOBA***

CITY           SKY/WX    TMP DP  RH WIND       PRES   REMARKS
BRANDON        MOCLDY    10   7  85 E8        29.58F WCI  -1
DAUPHIN        CLOUDY    12   9  85 VRB3      29.58F
ISLAND LAKE    FLURRIES   9   5  85 NW5       29.68  WCI   0
PILOT MOUND      N/A     18  16  93 SE7         N/A  WCI   8
THE PAS        FLURRIES   9   3  78 E8        29.60F WCI  -4
THOMPSON       MOCLDY     0  -4  85 W3        29.66F
WINNIPEG       MOCLDY    14  10  85 E5        29.70S WCI   6
LYNN LAKE      CLOUDY    -8 -11  84 SW3       29.61S
CHURCHILL      FLURRIES  18  16  93 NW12      29.54S WCI   5
$$
                ***SASKATCHEWAN***

CITY           SKY/WX    TMP DP  RH WIND       PRES   REMARKS
ESTEVAN        CLOUDY    30  21  69 SW13      29.49F WCI  20
KINDERSLEY     CLOUDY    37  28  70 W36G44    29.23F
LLOYDMINSTER   PTCLDY    10   9  92 E5        29.18F WCI   2
PRINCE ALBERT  CLOUDY    14  10  85 E16       29.37F WCI  -2
REGINA         CLOUDY    27  19  74 S7        29.39F WCI  19
YORKTON        CLOUDY    19  16  86 SE15      29.44F WCI   5
N. BATTLEFORD  CLEAR     12   9  85 E16       29.25F W


USA.gov is the U.S. government's official web portal to all federal, state and local government web resources and services.